Home > Time Zones > World Clock > Weather > Sweden > Lund > Past weeks

Flag for Sweden Weather past 2 weeks in Lund, Sweden

Now
52 °F

Scattered clouds.


Feels Like: 47 °F
Forecast: 42 / 60 °F
Wind: 16 mph from Northwest

Location: Malmo / Sturup

Current Time: May 23, 2015 at 11:39:32 AM

Latest Report: May 23, 2015 at 11:20 AM


Visibility: N/A

Pressure: 30.07 "Hg

Humidity: 72%

Dew point: 43 °F

Location of LundLocation

Historic Weather in Lund — Graph

°F

Lund temperature yesterday

Maximum temperature yesterday: 57 °F (at 6:20 PM)
Minimum temperature yesterday: 45 °F (at 4:20 AM)
Average temperature yesterday: 51 °F

Past Weeks' High & Low Weather Summary

 TemperatureHumidityPressure
High61 °F (May 12, 11:50 AM)100% (May 9, 2:20 AM)30.33 "Hg (May 9, 2:20 AM)
Low34 °F (May 9, 2:20 AM)36% (May 15, 4:20 PM)29.53 "Hg (May 19, 4:20 AM)
Average50 °F77%29.96 "Hg
* Reported May 8 10:20 AM — May 23 10:20 AM, Lund, Weather by CustomWeather, © 2015

Note: Actual official high and low records may vary slightly from our data, if they occured in-between our weather recording intervals... More about our weather records

Advertising

Lund weather history for previous 24 hours

 ConditionsComfort  
Time TempWeatherWind HumidityBarometerVisibility
10:20 AM
Sat, May 23
52 °FScattered clouds.16 mph72%30.07 "HgN/A
9:50 AM52 °FScattered clouds.14 mph72%30.07 "HgN/A
9:20 AM50 °FScattered clouds.14 mph82%30.07 "HgN/A
8:50 AM48 °FPartly sunny.12 mph87%30.07 "HgN/A
8:20 AM48 °FScattered clouds.12 mph82%30.07 "HgN/A
7:50 AM48 °FPassing clouds.9 mph87%30.07 "HgN/A
7:20 AM48 °FScattered clouds.7 mph87%30.07 "HgN/A
6:50 AM48 °FPartly sunny.8 mph87%30.07 "HgN/A
6:20 AM48 °FOvercast.9 mph87%30.07 "HgN/A
5:50 AM48 °FMore clouds than sun.8 mph94%30.07 "HgN/A
5:20 AM48 °FLight rain. Mostly cloudy.10 mph100%30.04 "HgN/A
4:50 AM48 °FDrizzle. Overcast.5 mph100%30.04 "HgN/A
4:20 AM48 °FLight rain. Mostly cloudy.5 mph100%30.04 "HgN/A
3:50 AM50 °FLight rain. Mostly cloudy.7 mph94%30.07 "Hg5 mi
3:20 AM50 °FLight rain. Partly cloudy.15 mph94%30.07 "HgN/A
2:50 AM54 °FMostly cloudy.13 mph77%30.07 "HgN/A
2:20 AM54 °FOvercast.12 mph77%30.07 "HgN/A
1:50 AM54 °FOvercast.12 mph77%30.07 "HgN/A
1:20 AM54 °FOvercast.13 mph77%30.07 "HgN/A
12:50 AM54 °FClear.14 mph82%30.07 "Hg10 mi
12:20 AM54 °FClear.13 mph82%30.07 "Hg10 mi
11:50 PM
Fri, May 22
54 °FClear.10 mph82%30.07 "Hg10 mi
11:20 PM52 °FClear.10 mph82%30.07 "Hg10 mi
10:50 PM52 °FClear.10 mph82%30.09 "Hg10 mi
10:20 PM52 °FSunny.8 mph82%30.09 "Hg10 mi
9:50 PM50 °FSunny.9 mph88%30.09 "Hg10 mi
9:20 PM52 °FSunny.9 mph82%30.09 "Hg10 mi
8:50 PM52 °FSunny.9 mph82%30.09 "Hg10 mi
8:20 PM54 °FSunny.12 mph77%30.09 "Hg10 mi
7:50 PM54 °FPassing clouds.9 mph82%30.12 "HgN/A
7:20 PM54 °FScattered clouds.10 mph77%30.12 "HgN/A
6:50 PM55 °FBroken clouds.10 mph77%30.12 "HgN/A
6:20 PM57 °FPartly sunny.9 mph72%30.12 "HgN/A
5:50 PM55 °FPartly sunny.8 mph77%30.15 "HgN/A
5:20 PM54 °FPartly sunny.10 mph77%30.15 "HgN/A
4:50 PM54 °FPartly sunny.12 mph77%30.18 "HgN/A
4:20 PM55 °FPartly sunny.13 mph67%30.18 "HgN/A
3:50 PM55 °FPartly sunny.13 mph67%30.18 "HgN/A
3:20 PM54 °FPartly sunny.13 mph72%30.18 "HgN/A
2:50 PM54 °FPartly sunny.13 mph72%30.18 "HgN/A
2:20 PM54 °FPartly sunny.14 mph72%30.21 "HgN/A
1:50 PM54 °FPartly sunny.15 mph72%30.21 "HgN/A
1:20 PM54 °FBroken clouds.14 mph72%30.21 "HgN/A
12:50 PM52 °FPartly sunny.10 mph77%30.21 "HgN/A
12:20 PM52 °FPartly sunny.14 mph77%30.21 "HgN/A
11:50 AM52 °FPartly sunny.12 mph72%30.24 "HgN/A
11:20 AM54 °FScattered clouds.12 mph72%30.21 "HgN/A
Weather by CustomWeather, © 2015

See weather overviewHow to use our weather pages